User: anonymous   Login
Location: Hartman Creek State Park
(44.3257°N, 89.2134°W)
Time: 13:51:57
(UTC-06:00)
Language:

Terra - Orbit

View from above orbital plane
View from above orbital plane
View from above satellite
View from above satellite

Ground track
Ground track

The orbit data is extracted from the following two-line orbital elements,

1 25994U 99068A   16337.32942296  .00000132  00000-0  39248-4 0  9994
2 25994  98.2080  49.1903 0000727  54.9890 305.1442 14.57110838902003
Epoch (UTC): 02 December 2016 07:54:22
Eccentricity: 0.0000727
inclination: 98.2080°
perigee height: 702 km
apogee height: 703 km
right ascension of ascending node: 49.1903°
argument of perigee: 54.9890°
revolutions per day: 14.57110838
mean anomaly at epoch: 305.1442°
orbit number at epoch: 90200

The dashed part of the orbit path shows where the satellite is in the earth's shadow,  

DLR